[[{"header":{"parameterUnit":"m.s-1","parameterCategory":1,"la1":30.2991,"la2":30.254,"lo1":-89.0895,"lo2":-89.0444,"dy":0.0017,"dx":0.0017,"nx":28,"ny":28,"refTime":"2025-03-26T21:00:00:Z","depth":0,"parameterNumber":2,"parameterNumberName":"U-component_of_WINDS"},"data":[0,0,0,0,0,0,0,0,0,0,0,0,0,0,0,0,0,0,0,0,0,0,0,0,0,0,0,0,0,0,0,0,0,0,0,0,0,0,0,0,0,0,0,0,0,0,0,0,0,0,0,0,0,0,0,0,0,0,0.4649,0.4649,0,0.463,0.4629,0.4629,0.4615,0.4615,0.4615,0.4615,0.4596,0.4596,0.4596,0,0,0,0,0,0,0,0,0,0,0,0,0,0.4676,0.4675,0.4649,0.4649,0.4648,0.463,0.4629,0.4629,0.4615,0.4615,0.4615,0.4615,0.4597,0.4596,0.4596,0,0,0,0,0,0,0,0,0,0,0,0,0,0.4661,0.4675,0.4649,0.4639,0.4638,0.463,0.4629,0.4629,0.4616,0.4615,0.4615,0.4615,0.4597,0.4596,0.4596,0.4595,0,0,0.4594,0.4594,0,0,0,0,0,0,0,0,0.4662,0.466,0.4641,0.464,0.4639,0.4625,0.4632,0.4618,0.4616,0.4624,0.4615,0.4615,0.4606,0.4605,0.4601,0.4594,0.4594,0.4594,0.4593,0.4593,0.4593,0,0,0,0,0,0,0,0.4663,0.4661,0.4641,0.4641,0.4639,0.4637,0.4634,0.4629,0.4616,0.4623,0.4622,0.462,0.4605,0.4602,0.4601,0.4593,0.4594,0.4593,0.4593,0.4593,0.4586,0.4586,0,0,0,0,0,0,0.4665,0.4662,0.4642,0.4641,0.465,0.4636,0.4634,0.4629,0.4616,0.4614,0.462,0.462,0.4603,0.4602,0.46,0.46,0.4593,0.4593,0.4592,0.4586,0.4586,0.4586,0,0,0,0,0,0,0.4666,0.4664,0.4643,0.4651,0.4648,0.4636,0.4631,0.4629,0.4626,0.4614,0.4612,0.4619,0.4603,0.4601,0.4597,0.4599,0.4592,0.4592,0.4585,0.4586,0.4586,0.4598,0,0,0,0,0,0,0.4667,0.4664,0.4663,0.4651,0.4648,0.4639,0.4631,0.4629,0.4625,0.4624,0.4612,0.461,0.4603,0.4598,0.4596,0.4598,0.4591,0.4585,0.4586,0.4586,0.4597,0.4598,0.46,0,0,0,0,0,0.4668,0.4667,0.4663,0.4661,0.4647,0.4639,0.4637,0.4628,0.4625,0.4624,0.4617,0.4611,0.4599,0.4597,0.4595,0.4597,0.4585,0.4585,0.4586,0.4597,0.4598,0.46,0,0,0,0,0,0,0.468,0.4666,0.4661,0.4657,0.4649,0.4637,0.4636,0.463,0.4624,0.4623,0.4612,0.461,0.4607,0.4601,0.46,0.4596,0.4591,0.4591,0.46,0.4601,0.4603,0.4604,0.4591,0,0,0,0,0,0.4683,0.4678,0.4665,0.4663,0.4659,0.4648,0.4645,0.4638,0.463,0.4627,0.462,0.4613,0.4607,0.4604,0.4598,0.4596,0.4594,0.4596,0.4598,0.4599,0.4599,0.4598,0.4599,0.4587,0.4587,0.4587,0,0,0.4688,0.4679,0.4676,0.4665,0.4658,0.4654,0.4646,0.4641,0.4638,0.4627,0.4622,0.4616,0.4608,0.4605,0.4603,0.46,0.4602,0.4599,0.46,0.46,0.4599,0.46,0.4601,0.4588,0.4588,0.4588,0,0,0.4694,0.4686,0.4684,0.4678,0.4668,0.4661,0.466,0.4649,0.4645,0.464,0.4632,0.4628,0.4618,0.4613,0.4609,0.4614,0.4608,0.4612,0.4619,0.4618,0.4619,0.462,0.4622,0.4623,0.4613,0.4613,0.4613,0,0.4701,0.4693,0.4683,0.4679,0.4675,0.4665,0.4662,0.4657,0.4646,0.4643,0.464,0.4629,0.4622,0.4618,0.462,0.4616,0.4616,0.4614,0.462,0.462,0.4621,0.4623,0.4624,0.4613,0.4613,0.4613,0.4613,0,0.4703,0.4698,0.4697,0.4687,0.4682,0.4679,0.4669,0.4666,0.466,0.4654,0.4649,0.4641,0.4634,0.4633,0.4627,0.4628,0.4626,0.4622,0.4616,0.4623,0.4625,0.4626,0.4614,0.4614,0.4614,0.4614,0,0,0.4717,0.4701,0.4701,0.4697,0.4686,0.4682,0.4678,0.4671,0.4669,0.4662,0.4659,0.4652,0.4648,0.4643,0.4637,0.4636,0.4642,0.4632,0.4631,0.4634,0.4643,0.4647,0.4648,0.4638,0.4638,0.4638,0.4644,0,0.4722,0.4715,0.4706,0.4703,0.4698,0.4689,0.4686,0.4679,0.4673,0.4669,0.4662,0.4658,0.4652,0.4649,0.4648,0.4641,0.4643,0.4641,0.4636,0.4636,0.4639,0.4649,0.4654,0.466,0.4645,0.4645,0.4645,0,0.4727,0.4721,0.4717,0.4706,0.4704,0.4702,0.4695,0.4691,0.4683,0.4679,0.4674,0.4667,0.4664,0.4659,0.4655,0.4653,0.465,0.4647,0.4647,0.4647,0.4641,0.465,0.4662,0.4663,0.4646,0.4646,0.4646,0,0.4738,0.4728,0.4725,0.4721,0.4709,0.4708,0.4703,0.4695,0.4692,0.4686,0.4683,0.4677,0.4674,0.467,0.4662,0.4658,0.4659,0.4653,0.4656,0.4656,0.4656,0.4656,0.4668,0.4654,0.4654,0.4654,0.4654,0,0.4745,0.4743,0.473,0.4728,0.4726,0.4716,0.4714,0.4708,0.4701,0.4699,0.469,0.4687,0.4677,0.4673,0.4667,0.4665,0.4663,0.466,0.4658,0.4661,0.4662,0.466,0.4659,0.4654,0.4654,0.4654,0.4654,0,0.4757,0.4748,0.4744,0.4733,0.473,0.4729,0.472,0.4718,0.4711,0.4708,0.4707,0.4696,0.4692,0.4683,0.4676,0.4672,0.4672,0.4669,0.4674,0.4674,0.4677,0.4677,0.4689,0.469,0.4674,0.4674,0.4674,0,0.4763,0.4761,0.475,0.4747,0.4742,0.4738,0.4734,0.4725,0.4722,0.4713,0.4712,0.4707,0.4702,0.4696,0.4688,0.4683,0.468,0.4685,0.4679,0.4682,0.4681,0.4681,0.4682,0.4686,0.4686,0.4686,0.4686,0,0.4773,0.4769,0.4764,0.4757,0.4753,0.4748,0.4742,0.4741,0.473,0.4727,0.4722,0.4718,0.4711,0.4706,0.47,0.4696,0.469,0.4688,0.4689,0.4692,0.4695,0.4694,0.4678,0.4688,0.4688,0.4688,0.4688,0.4688,0.4782,0.4781,0.4773,0.4768,0.4762,0.4757,0.4755,0.4748,0.4744,0.4738,0.4732,0.4728,0.4721,0.4712,0.4708,0.4705,0.4702,0.4703,0.4703,0.4703,0.4705,0.4695,0.4704,0.4704,0.4704,0.4704,0.4704,0,0.4793,0.4787,0.4783,0.4775,0.4771,0.4765,0.4759,0.4756,0.4753,0.4747,0.4742,0.4737,0.4733,0.4725,0.472,0.4719,0.4716,0.4718,0.4719,0.4718,0.4707,0.4708,0.4721,0.4721,0.4721,0.4721,0.4721,0.4721,0.4798,0.4795,0.479,0.4785,0.4779,0.4775,0.4772,0.4768,0.4763,0.4758,0.4754,0.4749,0.4742,0.4737,0.4732,0.473,0.4729,0.4732,0.4729,0.472,0.4718,0.4717,0.4717,0.4732,0.4732,0.474,0.474,0.474]},{"header":{"parameterUnit":"m.s-1","parameterCategory":1,"la1":30.2991,"la2":30.254,"lo1":-89.0895,"lo2":-89.0444,"dy":0.0017,"dx":0.0017,"nx":28,"ny":28,"refTime":"2025-03-26T21:00:00:Z","depth":0,"parameterNumber":3,"parameterNumberName":"V-component_of_WINDS"},"data":[0,0,0,0,0,0,0,0,0,0,0,0,0,0,0,0,0,0,0,0,0,0,0,0,0,0,0,0,0,0,0,0,0,0,0,0,0,0,0,0,0,0,0,0,0,0,0,0,0,0,0,0,0,0,0,0,0,0,-0.4789,-0.479,0,-0.4815,-0.4815,-0.4816,-0.483,-0.483,-0.483,-0.483,-0.4858,-0.4859,-0.4859,0,0,0,0,0,0,0,0,0,0,0,0,0,-0.4755,-0.4755,-0.4789,-0.479,-0.479,-0.4815,-0.4815,-0.4816,-0.483,-0.483,-0.483,-0.483,-0.4858,-0.4859,-0.4859,0,0,0,0,0,0,0,0,0,0,0,0,0,-0.4774,-0.4755,-0.4789,-0.48,-0.4801,-0.4815,-0.4815,-0.4816,-0.483,-0.483,-0.483,-0.483,-0.4857,-0.4858,-0.486,-0.4865,0,0,-0.4863,-0.4863,0,0,0,0,0,0,0,0,-0.4773,-0.4775,-0.4798,-0.4799,-0.4801,-0.4819,-0.4813,-0.4832,-0.483,-0.4819,-0.483,-0.483,-0.4845,-0.4847,-0.4852,-0.4866,-0.4867,-0.4863,-0.4864,-0.4864,-0.4864,0,0,0,0,0,0,0,-0.4771,-0.4774,-0.48,-0.4798,-0.48,-0.4804,-0.4807,-0.4817,-0.4832,-0.482,-0.4821,-0.4824,-0.4846,-0.4851,-0.4853,-0.4868,-0.4863,-0.4864,-0.4864,-0.4865,-0.4889,-0.4889,0,0,0,0,0,0,-0.4768,-0.4773,-0.4799,-0.48,-0.4787,-0.4805,-0.4808,-0.4813,-0.4831,-0.4834,-0.4824,-0.4824,-0.4849,-0.4851,-0.4854,-0.4862,-0.4864,-0.4865,-0.4866,-0.4889,-0.4889,-0.4889,0,0,0,0,0,0,-0.4767,-0.477,-0.4798,-0.4787,-0.4791,-0.4805,-0.4811,-0.4814,-0.4819,-0.4834,-0.4837,-0.4826,-0.4849,-0.4852,-0.4862,-0.4863,-0.4865,-0.4866,-0.4889,-0.4889,-0.4889,-0.4878,0,0,0,0,0,0,-0.4766,-0.477,-0.4772,-0.4787,-0.4791,-0.4805,-0.4811,-0.4814,-0.482,-0.4822,-0.4837,-0.484,-0.485,-0.4861,-0.4863,-0.4865,-0.4867,-0.4889,-0.4889,-0.4889,-0.4878,-0.4878,-0.4877,0,0,0,0,0,-0.4765,-0.4768,-0.4772,-0.4775,-0.4794,-0.4805,-0.4808,-0.4818,-0.482,-0.4823,-0.4833,-0.4839,-0.4863,-0.4861,-0.4865,-0.4866,-0.4889,-0.4889,-0.4889,-0.4879,-0.4878,-0.4877,0,0,0,0,0,0,-0.4752,-0.477,-0.4774,-0.4782,-0.4792,-0.4807,-0.481,-0.4817,-0.4827,-0.4827,-0.484,-0.4844,-0.4853,-0.4861,-0.4859,-0.4873,-0.4877,-0.4877,-0.4868,-0.4867,-0.4866,-0.4864,-0.4868,0,0,0,0,0,-0.475,-0.4757,-0.4773,-0.4778,-0.4782,-0.4795,-0.4801,-0.4808,-0.4819,-0.4824,-0.4834,-0.4845,-0.4855,-0.4861,-0.4871,-0.4879,-0.4884,-0.4882,-0.4882,-0.4881,-0.4882,-0.4887,-0.4887,-0.4889,-0.4889,-0.4889,0,0,-0.4746,-0.4757,-0.4761,-0.4775,-0.4784,-0.4792,-0.4799,-0.4807,-0.4813,-0.4825,-0.4835,-0.4843,-0.4857,-0.4866,-0.4871,-0.4873,-0.4882,-0.4881,-0.488,-0.4881,-0.4887,-0.4887,-0.4887,-0.4889,-0.4889,-0.4889,0,0,-0.4743,-0.4752,-0.4757,-0.4766,-0.4778,-0.4787,-0.4788,-0.4803,-0.4809,-0.4819,-0.4829,-0.4837,-0.4853,-0.4862,-0.4869,-0.4871,-0.4878,-0.4874,-0.487,-0.4876,-0.4876,-0.4875,-0.4877,-0.4877,-0.4874,-0.4874,-0.4874,0,-0.4737,-0.4749,-0.4759,-0.4767,-0.4773,-0.4784,-0.4791,-0.4798,-0.4814,-0.4819,-0.4821,-0.4842,-0.4852,-0.4864,-0.4864,-0.4869,-0.4872,-0.4872,-0.4875,-0.4875,-0.4875,-0.4876,-0.4876,-0.4873,-0.4873,-0.4874,-0.4874,0,-0.474,-0.4749,-0.4752,-0.4766,-0.4773,-0.478,-0.4792,-0.4798,-0.4805,-0.4814,-0.4825,-0.4837,-0.485,-0.4853,-0.486,-0.4866,-0.4868,-0.4872,-0.4876,-0.4874,-0.4875,-0.4876,-0.4873,-0.4873,-0.4873,-0.4873,0,0,-0.473,-0.475,-0.4751,-0.4758,-0.4774,-0.4781,-0.4788,-0.48,-0.4806,-0.4816,-0.4824,-0.4838,-0.4842,-0.485,-0.4858,-0.4863,-0.4864,-0.4867,-0.4867,-0.4866,-0.4873,-0.487,-0.487,-0.4869,-0.4869,-0.4869,-0.4872,0,-0.4729,-0.4743,-0.4753,-0.4764,-0.4772,-0.4782,-0.4789,-0.48,-0.4809,-0.4817,-0.4827,-0.4837,-0.4842,-0.4847,-0.4852,-0.4863,-0.4866,-0.4863,-0.4877,-0.4877,-0.4873,-0.4871,-0.4867,-0.4869,-0.4873,-0.4873,-0.4873,0,-0.4731,-0.474,-0.4751,-0.4766,-0.477,-0.4776,-0.4789,-0.4796,-0.4809,-0.4815,-0.4824,-0.4833,-0.4842,-0.4845,-0.4859,-0.4857,-0.4863,-0.487,-0.487,-0.4872,-0.4875,-0.4873,-0.487,-0.4871,-0.4874,-0.4874,-0.4874,0,-0.4722,-0.4739,-0.4747,-0.4753,-0.4771,-0.4775,-0.4782,-0.4795,-0.4802,-0.4813,-0.4818,-0.483,-0.4837,-0.4847,-0.4859,-0.4859,-0.4872,-0.4875,-0.4878,-0.4877,-0.488,-0.488,-0.4879,-0.4883,-0.4883,-0.4883,-0.4883,0,-0.4721,-0.4727,-0.4744,-0.4749,-0.4757,-0.4769,-0.4777,-0.4786,-0.4797,-0.4805,-0.4815,-0.4823,-0.4838,-0.4847,-0.4857,-0.4868,-0.487,-0.4876,-0.4879,-0.4875,-0.4875,-0.488,-0.488,-0.4883,-0.4883,-0.4883,-0.4883,0,-0.4713,-0.4725,-0.4735,-0.4751,-0.4755,-0.476,-0.4774,-0.478,-0.479,-0.48,-0.4803,-0.4818,-0.483,-0.4842,-0.4859,-0.4865,-0.4876,-0.4879,-0.4871,-0.4873,-0.4874,-0.4874,-0.4877,-0.4878,-0.4882,-0.4882,-0.4881,0,-0.4712,-0.4717,-0.4733,-0.4739,-0.4746,-0.4756,-0.4763,-0.4775,-0.4782,-0.4798,-0.4802,-0.4815,-0.4825,-0.4844,-0.4857,-0.487,-0.4874,-0.4874,-0.4876,-0.4872,-0.4874,-0.4874,-0.4875,-0.4873,-0.4873,-0.4873,-0.4873,0,-0.4708,-0.4714,-0.4723,-0.4735,-0.4743,-0.4753,-0.4763,-0.4768,-0.4782,-0.479,-0.4802,-0.481,-0.4827,-0.484,-0.4854,-0.4863,-0.4871,-0.4872,-0.4874,-0.487,-0.4866,-0.4869,-0.487,-0.4872,-0.4872,-0.4872,-0.4872,-0.4872,-0.4704,-0.4709,-0.4722,-0.4732,-0.4741,-0.4751,-0.4758,-0.4768,-0.4778,-0.4792,-0.4799,-0.4811,-0.4825,-0.4845,-0.4854,-0.4864,-0.4866,-0.4868,-0.4869,-0.4869,-0.4868,-0.4864,-0.4867,-0.4867,-0.4867,-0.4867,-0.4867,0,-0.4701,-0.471,-0.4719,-0.4734,-0.4742,-0.4748,-0.476,-0.4767,-0.4777,-0.4789,-0.4799,-0.4814,-0.4826,-0.484,-0.4854,-0.4859,-0.4863,-0.4863,-0.4863,-0.4865,-0.4865,-0.4863,-0.4859,-0.4859,-0.4859,-0.4859,-0.4859,-0.4859,-0.4701,-0.471,-0.4717,-0.4732,-0.4741,-0.4752,-0.4759,-0.4768,-0.4778,-0.4793,-0.4803,-0.4812,-0.4825,-0.484,-0.4852,-0.4856,-0.486,-0.4859,-0.4864,-0.4864,-0.4864,-0.4865,-0.4863,-0.4859,-0.4859,-0.4862,-0.4862,-0.4862]}]]